Location: Brunembert
(50.7122°N, 1.8935°E)
Time: 10:01:47
(UTC+00:00)

Cosmos 1140 Rocket - Pass Details

Date: 22 April 2021
Orbit: 745 x 767 km, 74.1° (Epoch: 05 May)

Event Time Altitude Azimuth Distance (km) Brightness Sun altitude
Rises 20:13:25 0° 190° (S) 3,176 6.4 -11.1°
Reaches altitude 10° 20:15:47 10° 186° (S) 2,255 5.6 -11.4°
Maximum altitude 20:20:47 58° 108° (ESE) 866 3.5 -12.1°
Drops below altitude 10° 20:25:50 10° 31° (NNE) 2,273 6.1 -12.7°
Sets 20:28:13 0° 27° (NNE) 3,203 6.9 -13.0°
